| time (UTC) | temp C | wind direction | speed KPH | gust KPH | rain 1hr cm | rain 24hr cm | rain mn cm | humidity % | barometer mb |
| 20260905064529 | 27 | 221 | 12.9 | 17.7 | 0.00 | 0.00 | 0.00 | 51 | 998.5 |
| 20260905063030 | 27 | 217 | 17.7 | 25.7 | 0.00 | 0.00 | 0.00 | 51 | 998.5 |
| 20260905061532 | 27 | 201 | 16.1 | 17.7 | 0.00 | 0.00 | 0.00 | 53 | 998.5 |
| 20260905060128 | 27 | 185 | 14.5 | 20.9 | 0.00 | 0.00 | 0.00 | 54 | 998.6 |
| 20260905054526 | 28 | 175 | 22.5 | 29.0 | 0.00 | 0.00 | 0.00 | 50 | 998.5 |
| 20260905053034 | 28 | 149 | 20.9 | 30.6 | 0.00 | 0.00 | 0.00 | 48 | 998.7 |
| 20260905051529 | 28 | 164 | 25.7 | 33.8 | 0.00 | 0.00 | 0.00 | 47 | 998.6 |
| 20260905050033 | 29 | 153 | 14.5 | 22.5 | 0.00 | 0.00 | 0.00 | 47 | 998.6 |
| 20260905044527 | 30 | 140 | 16.1 | 22.5 | 0.00 | 0.00 | 0.00 | 42 | 998.9 |
| 20260905043033 | 30 | 92 | 8.0 | 22.5 | 0.00 | 0.00 | 0.00 | 40 | 998.9 |
| 20260905041534 | 30 | 298 | 9.7 | 35.4 | 0.00 | 0.00 | 0.00 | 41 | 998.9 |
| 20260905040031 | 30 | 237 | 30.6 | 43.5 | 0.00 | 0.00 | 0.00 | 43 | 998.1 |
| 20260905034540 | 30 | 262 | 20.9 | 25.7 | 0.00 | 0.00 | 0.00 | 45 | 998.2 |
| 20260905033044 | 30 | 299 | 22.5 | 33.8 | 0.00 | 0.00 | 0.00 | 41 | 998.0 |
| 20260905031530 | 32 | 250 | 16.1 | 20.9 | 0.00 | 0.00 | 0.00 | 33 | 997.8 |
| 20260905030029 | 32 | 279 | 9.7 | 12.9 | 0.00 | 0.00 | 0.00 | 35 | 997.7 |
| 20260905024529 | 32 | 273 | 11.3 | 12.9 | 0.00 | 0.00 | 0.00 | 34 | 997.6 |
| 20260905023101 | 32 | 294 | 6.4 | 12.9 | 0.00 | 0.00 | 0.00 | 34 | 997.4 |
| 20260905021526 | 33 | 244 | 11.3 | 16.1 | 0.00 | 0.00 | 0.00 | 33 | 997.1 |
| 20260905020025 | 33 | 232 | 9.7 | 14.5 | 0.00 | 0.00 | 0.00 | 33 | 996.9 |
| 20260905014529 | 33 | 219 | 9.7 | 16.1 | 0.00 | 0.00 | 0.00 | 33 | 996.6 |
| 20260905013029 | 33 | 216 | 14.5 | 17.7 | 0.00 | 0.00 | 0.00 | 33 | 996.6 |
| 20260905011533 | 33 | 219 | 12.9 | 16.1 | 0.00 | 0.00 | 0.00 | 33 | 996.6 |
| 20260905010032 | 33 | 221 | 17.7 | 27.4 | 0.00 | 0.00 | 0.00 | 33 | 996.6 |
| 20260905004525 | 34 | 211 | 22.5 | 25.7 | 0.00 | 0.00 | 0.00 | 32 | 996.6 |
| 20260905003031 | 34 | 219 | 24.1 | 30.6 | 0.00 | 0.00 | 0.00 | 32 | 996.5 |
| 20260905001531 | 33 | 215 | 24.1 | 35.4 | 0.00 | 0.00 | 0.00 | 34 | 996.3 |
| 20260905000030 | 35 | 194 | 22.5 | 35.4 | 0.00 | 0.00 | 0.00 | 32 | 996.3 |
| 20260904234531 | 35 | 207 | 27.4 | 38.6 | 0.00 | 0.00 | 0.00 | 32 | 996.1 |
| 20260904233017 | 34 | 218 | 30.6 | 37.0 | 0.00 | 0.00 | 0.00 | 33 | 996.1 |
| 20260904231517 | 34 | 203 | 35.4 | 41.8 | 0.00 | 0.00 | 0.00 | 33 | 995.9 |
| 20260904230029 | 33 | 209 | 37.0 | 48.3 | 0.00 | 0.00 | 0.00 | 35 | 996.0 |
| 20260904224540 | 36 | 261 | 16.1 | 25.7 | 0.00 | 0.00 | 0.00 | 28 | 995.8 |
| 20260904223045 | 36 | 240 | 8.0 | 24.1 | 0.00 | 0.00 | 0.00 | 28 | 995.9 |
| 20260904221533 | 36 | 166 | 14.5 | 29.0 | 0.00 | 0.00 | 0.00 | 27 | 996.1 |
| 20260904220021 | 36 | 61 | 3.2 | 22.5 | 0.00 | 0.00 | 0.00 | 28 | 996.3 |
| 20260904214508 | 36 | 313 | 4.8 | 25.7 | 0.00 | 0.00 | 0.00 | 28 | 996.4 |
| 20260904213015 | 36 | 257 | 3.2 | 20.9 | 0.00 | 0.00 | 0.00 | 28 | 996.5 |
| 20260904211511 | 36 | 293 | 11.3 | 24.1 | 0.00 | 0.00 | 0.00 | 28 | 996.6 |
| 20260904210012 | 36 | 153 | 14.5 | 30.6 | 0.00 | 0.00 | 0.00 | 28 | 996.8 |
| 20260904204507 | 35 | 212 | 16.1 | 25.7 | 0.00 | 0.00 | 0.00 | 31 | 997.0 |
| 20260904203100 | 35 | 155 | 12.9 | 25.7 | 0.00 | 0.00 | 0.00 | 31 | 997.2 |
| 20260904201557 | 35 | 241 | 20.9 | 32.2 | 0.00 | 0.00 | 0.00 | 30 | 997.5 |
| 20260904200058 | 35 | 229 | 17.7 | 37.0 | 0.00 | 0.00 | 0.00 | 31 | 997.6 |
| 20260904194558 | 35 | 173 | 3.2 | 19.3 | 0.00 | 0.00 | 0.00 | 31 | 997.9 |
| 20260904193047 | 34 | 162 | 12.9 | 30.6 | 0.00 | 0.00 | 0.00 | 31 | 998.2 |
| 20260904191543 | 35 | 208 | 14.5 | 24.1 | 0.00 | 0.00 | 0.00 | 31 | 998.3 |
| 20260904190010 | 34 | 249 | 6.4 | 17.7 | 0.00 | 0.00 | 0.00 | 31 | 998.6 |
| 20260904184517 | 34 | 270 | 4.8 | 24.1 | 0.00 | 0.00 | 0.00 | 32 | 998.8 |
| 20260904183050 | 34 | 261 | 4.8 | 19.3 | 0.00 | 0.00 | 0.00 | 32 | 999.0 |
| 20260904181555 | 33 | 229 | 16.1 | 25.7 | 0.00 | 0.00 | 0.00 | 33 | 999.1 |
| 20260904180100 | 33 | 184 | 8.0 | 16.1 | 0.00 | 0.00 | 0.00 | 34 | 999.3 |
| 20260904174602 | 33 | 261 | 4.8 | 14.5 | 0.00 | 0.00 | 0.00 | 35 | 999.6 |
| 20260904173050 | 32 | 225 | 11.3 | 24.1 | 0.00 | 0.00 | 0.00 | 36 | 999.8 |
| 20260904171548 | 32 | 261 | 8.0 | 20.9 | 0.00 | 0.00 | 0.00 | 37 | 999.9 |
| 20260904170139 | 32 | 249 | 11.3 | 24.1 | 0.00 | 0.00 | 0.00 | 38 | 1000.1 |
| 20260904164537 | 32 | 279 | 14.5 | 25.7 | 0.00 | 0.00 | 0.00 | 39 | 1000.0 |
| 20260904163049 | 31 | 305 | 14.5 | 30.6 | 0.00 | 0.00 | 0.00 | 40 | 1000.1 |
| 20260904161529 | 31 | 263 | 17.7 | 27.4 | 0.00 | 0.00 | 0.00 | 42 | 1000.0 |
| 20260904160026 | 30 | 299 | 12.9 | 22.5 | 0.00 | 0.00 | 0.00 | 45 | 1000.0 |
| 20260904154528 | 30 | 305 | 20.9 | 29.0 | 0.00 | 0.00 | 0.00 | 46 | 999.9 |
| 20260904153048 | 29 | 275 | 25.7 | 32.2 | 0.00 | 0.00 | 0.00 | 47 | 999.8 |
| 20260904151523 | 28 | 257 | 22.5 | 33.8 | 0.00 | 0.00 | 0.00 | 48 | 999.8 |
| 20260904150015 | 28 | 282 | 27.4 | 37.0 | 0.00 | 0.00 | 0.00 | 50 | 999.8 |
| 20260904144511 | 27 | 275 | 24.1 | 37.0 | 0.00 | 0.00 | 0.00 | 52 | 999.9 |
| 20260904143009 | 26 | 262 | 20.9 | 29.0 | 0.00 | 0.00 | 0.00 | 53 | 1000.0 |
| 20260904141533 | 26 | 261 | 24.1 | 30.6 | 0.00 | 0.00 | 0.00 | 53 | 1000.0 |
| 20260904140040 | 26 | 242 | 22.5 | 29.0 | 0.00 | 0.00 | 0.00 | 54 | 999.9 |
| 20260904134507 | 25 | 240 | 19.3 | 24.1 | 0.00 | 0.00 | 0.00 | 57 | 999.9 |
| 20260904133040 | 25 | 230 | 19.3 | 25.7 | 0.00 | 0.00 | 0.00 | 59 | 999.8 |
| 20260904131519 | 24 | 241 | 19.3 | 25.7 | 0.00 | 0.00 | 0.00 | 60 | 999.4 |
| 20260904130013 | 25 | 241 | 19.3 | 24.1 | 0.00 | 0.00 | 0.00 | 58 | 999.2 |
| 20260904124510 | 25 | 241 | 17.7 | 22.5 | 0.00 | 0.00 | 0.00 | 59 | 999.2 |
| 20260904123113 | 25 | 236 | 19.3 | 24.1 | 0.00 | 0.00 | 0.00 | 59 | 999.1 |
| 20260904121601 | 25 | 243 | 19.3 | 25.7 | 0.00 | 0.00 | 0.00 | 58 | 998.8 |
| 20260904114554 | 25 | 265 | 19.3 | 24.1 | 0.00 | 0.00 | 0.00 | 58 | 998.7 |
| 20260904113059 | 25 | 277 | 17.7 | 27.4 | 0.00 | 0.00 | 0.00 | 57 | 998.4 |
| 20260904111552 | 25 | 248 | 20.9 | 33.8 | 0.00 | 0.00 | 0.00 | 53 | 998.5 |
| 20260904110056 | 25 | 254 | 20.9 | 29.0 | 0.00 | 0.00 | 0.00 | 52 | 998.3 |
| 20260904104559 | 25 | 254 | 20.9 | 30.6 | 0.00 | 0.00 | 0.00 | 52 | 998.2 |
| 20260904103058 | 25 | 250 | 24.1 | 30.6 | 0.00 | 0.00 | 0.00 | 55 | 998.0 |
| 20260904101607 | 25 | 250 | 20.9 | 25.7 | 0.00 | 0.00 | 0.00 | 57 | 997.9 |
| 20260904100059 | 25 | 245 | 19.3 | 25.7 | 0.00 | 0.00 | 0.00 | 56 | 997.8 |
| 20260904094551 | 25 | 251 | 12.9 | 17.7 | 0.00 | 0.00 | 0.00 | 54 | 997.7 |
| 20260904093104 | 26 | 254 | 16.1 | 17.7 | 0.00 | 0.00 | 0.00 | 53 | 997.7 |
| 20260904091539 | 26 | 275 | 14.5 | 17.7 | 0.00 | 0.00 | 0.00 | 52 | 997.7 |
| 20260904090047 | 26 | 262 | 11.3 | 14.5 | 0.00 | 0.00 | 0.00 | 51 | 997.6 |
| 20260904084535 | 27 | 259 | 9.7 | 12.9 | 0.00 | 0.00 | 0.00 | 49 | 997.7 |
| 20260904083030 | 27 | 268 | 9.7 | 14.5 | 0.00 | 0.00 | 0.00 | 48 | 997.8 |
| 20260904081530 | 27 | 267 | 11.3 | 14.5 | 0.00 | 0.00 | 0.00 | 47 | 997.9 |
| 20260904080029 | 27 | 286 | 12.9 | 16.1 | 0.00 | 0.00 | 0.00 | 47 | 998.0 |
| 20260904074530 | 27 | 275 | 14.5 | 20.9 | 0.00 | 0.00 | 0.00 | 47 | 998.2 |
| 20260904073040 | 28 | 244 | 14.5 | 20.9 | 0.00 | 0.00 | 0.00 | 46 | 998.4 |
| 20260904071600 | 28 | 248 | 16.1 | 22.5 | 0.00 | 0.00 | 0.00 | 45 | 998.3 |
| 20260904070056 | 28 | 189 | 6.4 | 16.1 | 0.00 | 0.00 | 0.00 | 45 | 998.3 |